Regional Weather Roundup
Issued by NWS

Home | Current Version | Previous Version | Graphics & Text | Print | Product List | Glossary On
Versions: 1 2 3 4 5 6 7 8 9 10 11 12 13 14 15 16 17 18 19 20 21 22 23 24 25 26 27 28 29 30 31 32 33 34 35 36 37 38 39 40 41 42 43 44 45 46 47 48 49 50
000
ASUS44 KMEG 230110
RWRTN
TENNESSEE HOURLY STATE WEATHER ROUNDUP
NATIONAL WEATHER SERVICE MEMPHIS TN
800 PM CDT WED OCT 22 2014

TNZ002-004-019-021-049-052-054-088>092-230200-
WEST TENNESSEE

CITY           SKY/WX    TMP DP  RH WIND       PRES   REMARKS
MEMPHIS INTL   CLEAR     60  43  53 NE5       30.18R
NWS MEMPHIS      N/A     53 N/A N/A MISG        N/A
JACKSON        CLEAR     53  43  68 E5        30.20R
DYERSBURG      CLEAR     54  36  50 E3        30.21F
UNION CITY     CLEAR     48  43  81 CALM      30.20F
PARIS          CLEAR     46  39  76 CALM      30.22R
HUNTINGDON     CLEAR     51  40  66 N3        30.22R
LEXINGTON      CLEAR     48  45  87 CALM      30.19R
SAVANNAH       CLEAR     48  45  87 CALM      30.19R
$$

TNZ008-025-027-028-033-062-065-066-230200-
NORTH MIDDLE TENNESSEE

CITY           SKY/WX    TMP DP  RH WIND       PRES   REMARKS
NASHVILLE      CLEAR     52  42  69 N7        30.21R
CLARKSVILLE    CLEAR     52  41  66 NE3       30.22R
SMYRNA         CLEAR     52  43  71 N7        30.22R
COOKEVILLE     CLEAR     50  43  76 NE5       30.20S
CROSSVILLE     CLEAR     46  38  73 NE8       30.22R
$$

TNZ061-075-076-078-094-096-097-230200-
SOUTH MIDDLE TENNESSEE

CITY           SKY/WX    TMP DP  RH WIND       PRES   REMARKS
FAYETTEVILLE   CLEAR     48  39  71 NE6       30.18R
TULLAHOMA      CLEAR     50  41  71 CALM      30.20R
WINCHESTER     CLEAR     48  43  81 CALM      30.20R
MCMINNVILLE    CLEAR     50  43  76 CALM      30.19S
COLUMBIA       CLEAR     46  46 100 E3        30.19R
SHELBYVILLE    CLEAR     48  43  81 CALM      30.20S
$$

TNZ017-018-042-046-047-230200-
NORTHEAST TENNESSEE

CITY           SKY/WX    TMP DP  RH WIND       PRES   REMARKS
TRI CITIES     CLOUDY    48  41  76 NW3       30.22S
ELIZABETHTON   CLOUDY    45  39  81 W6        30.21S
$$

TNZ012-013-036-069-073-074-230200-
CENTRAL EAST TENNESSEE

CITY           SKY/WX    TMP DP  RH WIND       PRES   REMARKS
KNOXVILLE      PTCLDY    48  39  71 N12       30.22R
OAK RIDGE      PTCLDY    49  39  68 CALM      30.24R
GATLINBURG     MOCLDY    48  39  71 NE5       30.22R
MORRISTOWN     CLEAR     45  39  81 N7        30.23S
$$

TNZ083-085-099-230200-
SOUTHEAST TENNESSEE

CITY           SKY/WX    TMP DP  RH WIND       PRES   REMARKS
CHATTANOOGA    CLEAR     51  44  77 N3        30.17R
$$

SKY/WX REPORTED AS FAIR MEANS FEW OR NO CLOUDS BELOW
12 THOUSAND FEET.




USA.gov is the U.S. government's official web portal to all federal, state and local government web resources and services.